"FRM_SS3_TRK_CMP_EDR_2791.DAT   ",2006-03-15T04:32:31.95 ,"1/0090477148.23801",    0,    0,   11446,"SS3","B3","B2","B3","B2","PISd",0,2,0,1,"B2", 0,15,   1, 1,    0,"TRK","NO  REC","OK ","OK ",    000701.276,    -003.670,    0031.756,    0018.907,    0104.050
"FRM_SS3_TRK_CMP_EDR_2791.DAT   ",2006-03-15T04:32:33.78 ,"1/0090477150.12712",    0,    1,   11446,"SS3","B3","B2","B3","B2","PISd",0,2,0,1,"B2", 0,15,   1, 1,    0,"TRK","NO  REC","OK ","OK ",    000699.281,    -003.768,    0031.755,    0018.908,    0104.073
"FRM_SS3_TRK_CMP_EDR_2791.DAT   ",2006-03-15T04:32:35.61 ,"1/0090477152.01623",    0,    2,   11446,"SS3","B3","B2","B3","B2","PISd",0,2,0,1,"B2", 0,15,   1, 1,    0,"TRK","NO  REC","OK ","OK ",    000697.289,    -003.867,    0031.753,    0018.908,    0104.096
"FRM_SS3_TRK_CMP_EDR_2791.DAT   ",2006-03-15T04:32:37.43 ,"1/0090477153.55556",    0,    3,   11446,"SS3","B3","B2","B3","B2","PISd",0,2,0,1,"B2", 0,15,   1, 1,    0,"TRK","NO  REC","OK ","OK ",    000695.309,    -003.964,    0031.751,    0018.909,    0104.118
"FRM_SS3_TRK_CMP_EDR_2791.DAT   ",2006-03-15T04:32:39.26 ,"1/0090477155.43952",    0,    4,   11446,"SS3","B3","B2","B3","B2","PISd",0,2,0,1,"B2", 0,15,   1, 1,    0,"TRK","NO  REC","OK ","OK ",    000693.333,    -004.063,    0031.750,    0018.909,    0104.141
"FRM_SS3_TRK_CMP_EDR_2791.DAT   ",2006-03-15T04:32:41.08 ,"1/0090477157.32348",    0,    5,   11446,"SS3","B3","B2","B3","B2","PISd",0,2,0,1,"B2", 0,15,   1, 1,    0,"TRK","NO  REC","OK ","OK ",    000691.360,    -004.161,    0031.748,    0018.909,    0104.163
"FRM_SS3_TRK_CMP_EDR_2791.DAT   ",2006-03-15T04:32:42.89 ,"1/0090477159.20229",    0,    6,   11446,"SS3","B3","B2","B3","B2","PISd",0,2,0,1,"B2", 0,15,   1, 1,    0,"TRK","NO  REC","OK ","OK ",    000689.400,    -004.258,    0031.747,    0018.910,    0104.186
"FRM_SS3_TRK_CMP_EDR_2791.DAT   ",2006-03-15T04:32:44.71 ,"1/0090477161.08111",    0,    7,   11446,"SS3","B3","B2","B3","B2","PISd",0,2,0,1,"B2", 0,15,   1, 1,    0,"TRK","NO  REC","OK ","OK ",    000687.443,    -004.356,    0031.745,    0018.910,    0104.208
"FRM_SS3_TRK_CMP_EDR_2791.DAT   ",2006-03-15T04:32:46.52 ,"1/0090477162.61528",    0,    8,   11446,"SS3","B3","B2","B3","B2","PISd",0,2,0,1,"B2", 0,15,   1, 1,    0,"TRK","NO  REC","OK ","OK ",    000685.489,    -004.454,    0031.744,    0018.911,    0104.230
"FRM_SS3_TRK_CMP_EDR_2791.DAT   ",2006-03-15T04:32:48.33 ,"1/0090477164.48894",    0,    9,   11446,"SS3","B3","B2","B3","B2","PISd",0,2,0,1,"B2", 0,15,   1, 1,    0,"TRK","NO  REC","OK ","OK ",    000683.548,    -004.552,    0031.742,    0018.911,    0104.253
"FRM_SS3_TRK_CMP_EDR_2791.DAT   ",2006-03-15T04:32:50.14 ,"1/0090477166.36261",    0,   10,   11446,"SS3","B3","B2","B3","B2","PISd",0,2,0,1,"B2", 0,15,   1, 1,    0,"TRK","IEC  OK","OK ","OK ",    000681.610,    -004.650,    0031.740,    0018.911,    0104.275
"FRM_SS3_TRK_CMP_EDR_2791.DAT   ",2006-03-15T04:32:51.94 ,"1/0090477168.23112",    0,   11,   11446,"SS3","B3","B2","B3","B2","PISd",0,2,0,1,"B2", 0,15,   1, 1,    0,"TRK","NO  REC","OK ","OK ",    000679.685,    -004.747,    0031.739,    0018.912,    0104.297
"FRM_SS3_TRK_CMP_EDR_2791.DAT   ",2006-03-15T04:32:53.74 ,"1/0090477170.09964",    0,   12,   11446,"SS3","B3","B2","B3","B2","PISd",0,2,0,1,"B2", 0,15,   1, 1,    0,"TRK","NO  REC","OK ","OK ",    000677.763,    -004.845,    0031.737,    0018.912,    0104.319
"FRM_SS3_TRK_CMP_EDR_2791.DAT   ",2006-03-15T04:32:55.54 ,"1/0090477171.62351",    0,   13,   11446,"SS3","B3","B2","B3","B2","PISd",0,2,0,1,"B2", 0,15,   1, 1,    0,"TRK","NO  REC","OK ","OK ",    000675.844,    -004.942,    0031.736,    0018.913,    0104.341
"FRM_SS3_TRK_CMP_EDR_2791.DAT   ",2006-03-15T04:32:57.33 ,"1/0090477173.48688",    0,   14,   11446,"SS3","B3","B2","B3","B2","PISd",0,2,0,1,"B2", 0,15,   1, 1,    0,"TRK","NO  REC","OK ","OK ",    000673.938,    -005.040,    0031.734,    0018.913,    0104.363
"FRM_SS3_TRK_CMP_EDR_2791.DAT   ",2006-03-15T04:32:59.12 ,"1/0090477175.35024",    0,   15,   11446,"SS3","B3","B2","B3","B2","PISd",0,2,0,1,"B2", 0,15,   1, 1,    0,"TRK","NO  REC","OK ","OK ",    000672.035,    -005.137,    0031.733,    0018.913,    0104.385
"FRM_SS3_TRK_CMP_EDR_2791.DAT   ",2006-03-15T04:33:00.91 ,"1/0090477177.21360",    0,   16,   11446,"SS3","B3","B2","B3","B2","PISd",0,2,0,1,"B2", 0,15,   1, 1,    0,"TRK","NO  REC","OK ","OK ",    000670.136,    -005.234,    0031.732,    0018.914,    0104.407
"FRM_SS3_TRK_CMP_EDR_2791.DAT   ",2006-03-15T04:33:02.69 ,"1/0090477179.07182",    0,   17,   11446,"SS3","B3","B2","B3","B2","PISd",0,2,0,1,"B2", 0,15,   1, 1,    0,"TRK","NO  REC","OK ","OK ",    000668.248,    -005.331,    0031.730,    0018.914,    0104.429
"FRM_SS3_TRK_CMP_EDR_2791.DAT   ",2006-03-15T04:33:04.48 ,"1/0090477180.58539",    0,   18,   11446,"SS3","B3","B2","B3","B2","PISd",0,2,0,1,"B2", 0,15,   1, 1,    0,"TRK","NO  REC","OK ","OK ",    000666.365,    -005.429,    0031.729,    0018.914,    0104.451
"FRM_SS3_TRK_CMP_EDR_2791.DAT   ",2006-03-15T04:33:06.26 ,"1/0090477182.44361",    0,   19,   11446,"SS3","B3","B2","B3","B2","PISd",0,2,0,1,"B2", 0,15,   1, 1,    0,"TRK","NO  REC","OK ","OK ",    000664.484,    -005.526,    0031.727,    0018.915,    0104.472
"FRM_SS3_TRK_CMP_EDR_2791.DAT   ",2006-03-15T04:33:08.04 ,"1/0090477184.29668",    0,   20,   11446,"SS3","B3","B2","B3","B2","PISd",0,2,0,1,"B2", 0,15,   1, 1,    0,"TRK","NO  REC","OK ","OK ",    000662.616,    -005.623,    0031.726,    0018.915,    0104.494
"FRM_SS3_TRK_CMP_EDR_2791.DAT   ",2006-03-15T04:33:09.81 ,"1/0090477186.14974",    0,   21,   11446,"SS3","B3","B2","B3","B2","PISd",0,2,0,1,"B2", 0,15,   1, 1,    0,"TRK","NO  REC","OK ","OK ",    000660.751,    -005.720,    0031.724,    0018.916,    0104.516
"FRM_SS3_TRK_CMP_EDR_2791.DAT   ",2006-03-15T04:33:11.58 ,"1/0090477187.65302",    0,   22,   11446,"SS3","B3","B2","B3","B2","PISd",0,2,0,1,"B2", 0,15,   1, 1,    0,"TRK","NO  REC","OK ","OK ",    000658.898,    -005.817,    0031.723,    0018.916,    0104.537
"FRM_SS3_TRK_CMP_EDR_2791.DAT   ",2006-03-15T04:33:13.35 ,"1/0090477189.50093",    0,   23,   11446,"SS3","B3","B2","B3","B2","PISd",0,2,0,1,"B2", 0,15,   1, 1,    0,"TRK","NO  REC","OK ","OK ",    000657.049,    -005.913,    0031.722,    0018.916,    0104.559
"FRM_SS3_TRK_CMP_EDR_2791.DAT   ",2006-03-15T04:33:15.12 ,"1/0090477191.34885",    0,   24,   11446,"SS3","B3","B2","B3","B2","PISd",0,2,0,1,"B2", 0,15,   1, 1,    0,"TRK","NO  REC","OK ","OK ",    000655.203,    -006.010,    0031.720,    0018.917,    0104.580
"FRM_SS3_TRK_CMP_EDR_2791.DAT   ",2006-03-15T04:33:16.88 ,"1/0090477193.19162",    0,   25,   11446,"SS3","B3","B2","B3","B2","PISd",0,2,0,1,"B2", 0,15,   1, 1,    0,"TRK","NO  REC","OK ","OK ",    000653.369,    -006.107,    0031.719,    0018.917,    0104.601
"FRM_SS3_TRK_CMP_EDR_2791.DAT   ",2006-03-15T04:33:18.64 ,"1/0090477195.03438",    0,   26,   11446,"SS3","B3","B2","B3","B2","PISd",0,2,0,1,"B2", 0,15,   1, 1,    0,"TRK","NO  REC","OK ","OK ",    000651.538,    -006.203,    0031.717,    0018.918,    0104.623
"FRM_SS3_TRK_CMP_EDR_2791.DAT   ",2006-03-15T04:33:20.40 ,"1/0090477196.53251",    0,   27,   11446,"SS3","B3","B2","B3","B2","PISd",0,2,0,1,"B2", 0,15,   1, 1,    0,"TRK","NO  REC","OK ","OK ",    000649.712,    -006.300,    0031.716,    0018.918,    0104.644
"FRM_SS3_TRK_CMP_EDR_2791.DAT   ",2006-03-15T04:33:22.15 ,"1/0090477198.37013",    0,   28,   11446,"SS3","B3","B2","B3","B2","PISd",0,2,0,1,"B2", 0,15,   1, 1,    0,"TRK","NO  REC","OK ","OK ",    000647.896,    -006.397,    0031.715,    0018.918,    0104.665
"FRM_SS3_TRK_CMP_EDR_2791.DAT   ",2006-03-15T04:33:23.90 ,"1/0090477200.20774",    0,   29,   11446,"SS3","B3","B2","B3","B2","PISd",0,2,0,1,"B2", 0,15,   1, 1,    0,"TRK","NO  REC","OK ","OK ",    000646.085,    -006.493,    0031.713,    0018.919,    0104.686
"FRM_SS3_TRK_CMP_EDR_2791.DAT   ",2006-03-15T04:33:25.65 ,"1/0090477202.04536",    0,   30,   11446,"SS3","B3","B2","B3","B2","PISd",0,2,0,1,"B2", 0,15,   1, 1,    0,"TRK","NO  REC","OK ","OK ",    000644.276,    -006.590,    0031.712,    0018.919,    0104.708
"FRM_SS3_TRK_CMP_EDR_2791.DAT   ",2006-03-15T04:33:27.40 ,"1/0090477203.53319",    0,   31,   11446,"SS3","B3","B2","B3","B2","PISd",0,2,0,1,"B2", 0,15,   1, 1,    0,"TRK","NO  REC","OK ","OK ",    000642.480,    -006.686,    0031.711,    0018.919,    0104.729
"FRM_SS3_TRK_CMP_EDR_2791.DAT   ",2006-03-15T04:33:29.14 ,"1/0090477205.36566",    0,   32,   11446,"SS3","B3","B2","B3","B2","PISd",0,2,0,1,"B2", 0,15,   1, 1,    0,"TRK","NO  REC","OK ","OK ",    000640.687,    -006.782,    0031.709,    0018.920,    0104.750
"FRM_SS3_TRK_CMP_EDR_2791.DAT   ",2006-03-15T04:33:30.89 ,"1/0090477207.19812",    0,   33,   11446,"SS3","B3","B2","B3","B2","PISd",0,2,0,1,"B2", 0,15,   1, 1,    0,"TRK","NO  REC","OK ","OK ",    000638.898,    -006.878,    0031.708,    0018.920,    0104.771
"FRM_SS3_TRK_CMP_EDR_2791.DAT   ",2006-03-15T04:33:32.62 ,"1/0090477209.02544",    0,   34,   11446,"SS3","B3","B2","B3","B2","PISd",0,2,0,1,"B2", 0,15,   1, 1,    0,"TRK","NO  REC","OK ","OK ",    000637.120,    -006.974,    0031.707,    0018.921,    0104.791
"FRM_SS3_TRK_CMP_EDR_2791.DAT   ",2006-03-15T04:33:34.36 ,"1/0090477210.50812",    0,   35,   11446,"SS3","B3","B2","B3","B2","PISd",0,2,0,1,"B2", 0,15,   1, 1,    0,"TRK","NO  REC","OK ","OK ",    000635.346,    -007.070,    0031.705,    0018.921,    0104.812
"FRM_SS3_TRK_CMP_EDR_2791.DAT   ",2006-03-15T04:33:36.10 ,"1/0090477212.33544",    0,   36,   11446,"SS3","B3","B2","B3","B2","PISd",0,2,0,1,"B2", 0,15,   1, 1,    0,"TRK","NO  REC","OK ","OK ",    000633.575,    -007.167,    0031.704,    0018.921,    0104.833
"FRM_SS3_TRK_CMP_EDR_2791.DAT   ",2006-03-15T04:33:37.83 ,"1/0090477214.15761",    0,   37,   11446,"SS3","B3","B2","B3","B2","PISd",0,2,0,1,"B2", 0,15,   1, 1,    0,"TRK","NO  REC","OK ","OK ",    000631.816,    -007.263,    0031.703,    0018.922,    0104.854
"FRM_SS3_TRK_CMP_EDR_2791.DAT   ",2006-03-15T04:33:39.55 ,"1/0090477215.63514",    0,   38,   11446,"SS3","B3","B2","B3","B2","PISd",0,2,0,1,"B2", 0,15,   1, 1,    0,"TRK","NO  REC","OK ","OK ",    000630.060,    -007.358,    0031.702,    0018.922,    0104.874
"FRM_SS3_TRK_CMP_EDR_2791.DAT   ",2006-03-15T04:33:41.28 ,"1/0090477217.45730",    0,   39,   11446,"SS3","B3","B2","B3","B2","PISd",0,2,0,1,"B2", 0,15,   1, 1,    0,"TRK","NO  REC","OK ","OK ",    000628.308,    -007.454,    0031.700,    0018.922,    0104.895
"FRM_SS3_TRK_CMP_EDR_2791.DAT   ",2006-03-15T04:33:43.00 ,"1/0090477219.27432",    0,   40,   11446,"SS3","B3","B2","B3","B2","PISd",0,2,0,1,"B2", 0,15,   1, 1,    0,"TRK","NO  REC","OK ","OK ",    000626.568,    -007.550,    0031.699,    0018.923,    0104.916
"FRM_SS3_TRK_CMP_EDR_2791.DAT   ",2006-03-15T04:33:44.72 ,"1/0090477221.09134",    0,   41,   11446,"SS3","B3","B2","B3","B2","PISd",0,2,0,1,"B2", 0,15,   1, 1,    0,"TRK","NO  REC","OK ","OK ",    000624.830,    -007.646,    0031.698,    0018.923,    0104.936
"FRM_SS3_TRK_CMP_EDR_2791.DAT   ",2006-03-15T04:33:46.44 ,"1/0090477222.56372",    0,   42,   11446,"SS3","B3","B2","B3","B2","PISd",0,2,0,1,"B2", 0,15,   1, 1,    0,"TRK","NO  REC","OK ","OK ",    000623.097,    -007.742,    0031.697,    0018.924,    0104.957
"FRM_SS3_TRK_CMP_EDR_2791.DAT   ",2006-03-15T04:33:48.16 ,"1/0090477224.37559",    0,   43,   11446,"SS3","B3","B2","B3","B2","PISd",0,2,0,1,"B2", 0,15,   1, 1,    0,"TRK","NO  REC","OK ","OK ",    000621.375,    -007.837,    0031.696,    0018.924,    0104.977
"FRM_SS3_TRK_CMP_EDR_2791.DAT   ",2006-03-15T04:33:49.87 ,"1/0090477226.18746",    0,   44,   11446,"SS3","B3","B2","B3","B2","PISd",0,2,0,1,"B2", 0,15,   1, 1,    0,"TRK","NO  REC","OK ","OK ",    000619.656,    -007.933,    0031.694,    0018.924,    0104.997
"FRM_SS3_TRK_CMP_EDR_2791.DAT   ",2006-03-15T04:33:51.58 ,"1/0090477227.65469",    0,   45,   11446,"SS3","B3","B2","B3","B2","PISd",0,2,0,1,"B2", 0,15,   1, 1,    0,"TRK","NO  REC","OK ","OK ",    000617.941,    -008.028,    0031.693,    0018.925,    0105.018
"FRM_SS3_TRK_CMP_EDR_2791.DAT   ",2006-03-15T04:33:53.29 ,"1/0090477229.46141",    0,   46,   11446,"SS3","B3","B2","B3","B2","PISd",0,2,0,1,"B2", 0,15,   1, 1,    0,"TRK","NO  REC","OK ","OK ",    000616.237,    -008.124,    0031.692,    0018.925,    0105.038
"FRM_SS3_TRK_CMP_EDR_2791.DAT   ",2006-03-15T04:33:54.99 ,"1/0090477231.26813",    0,   47,   11446,"SS3","B3","B2","B3","B2","PISd",0,2,0,1,"B2", 0,15,   1, 1,    0,"TRK","NO  REC","OK ","OK ",    000614.537,    -008.219,    0031.691,    0018.926,    0105.058
"FRM_SS3_TRK_CMP_EDR_2791.DAT   ",2006-03-15T04:33:56.70 ,"1/0090477233.07485",    0,   48,   11446,"SS3","B3","B2","B3","B2","PISd",0,2,0,1,"B2", 0,15,   1, 1,    0,"TRK","NO  REC","OK ","OK ",    000612.840,    -008.314,    0031.690,    0018.926,    0105.078
"FRM_SS3_TRK_CMP_EDR_2791.DAT   ",2006-03-15T04:33:58.40 ,"1/0090477234.53178",    0,   49,   11446,"SS3","B3","B2","B3","B2","PISd",0,2,0,1,"B2", 0,15,   1, 1,    0,"TRK","NO  REC","OK ","OK ",    000611.155,    -008.409,    0031.688,    0018.926,    0105.098
"FRM_SS3_TRK_CMP_EDR_2791.DAT   ",2006-03-15T04:34:00.09 ,"1/0090477236.33335",    0,   50,   11446,"SS3","B3","B2","B3","B2","PISd",0,2,0,1,"B2", 0,15,   1, 1,    0,"TRK","NO  REC","OK ","OK ",    000609.473,    -008.505,    0031.687,    0018.927,    0105.118
"FRM_SS3_TRK_CMP_EDR_2791.DAT   ",2006-03-15T04:34:01.88 ,"1/0090477238.19672",    1,    0,   80204,"SS3","B3","B1","B3","B1","PISd",0,2,1,1,"B2", 0,15,   0, 0,    0,"TRK","NO  REC","OK ","OK ",    000607.702,    -008.605,    0031.686,    0018.927,    0105.139
"FRM_SS3_TRK_CMP_EDR_2791.DAT   ",2006-03-15T04:34:03.99 ,"1/0090477240.26606",    1,    1,   80204,"SS3","B3","B1","B3","B1","PISd",0,2,1,1,"B2", 0,15,   0, 0,    0,"TRK","NO  REC","OK ","OK ",    000605.624,    -008.723,    0031.685,    0018.928,    0105.164
"FRM_SS3_TRK_CMP_EDR_2791.DAT   ",2006-03-15T04:34:06.09 ,"1/0090477242.33026",    1,    2,   80204,"SS3","B3","B1","B3","B1","PISd",0,2,1,1,"B2", 0,15,   0, 0,    0,"TRK","NO  REC","OK ","OK ",    000603.560,    -008.841,    0031.683,    0018.928,    0105.188
"FRM_SS3_TRK_CMP_EDR_2791.DAT   ",2006-03-15T04:34:08.19 ,"1/0090477244.39445",    1,    3,   80204,"SS3","B3","B1","B3","B1","PISd",0,2,1,1,"B2", 0,15,   0, 0,    0,"TRK","NO  REC","OK ","OK ",    000601.501,    -008.959,    0031.682,    0018.929,    0105.213
"FRM_SS3_TRK_CMP_EDR_2791.DAT   ",2006-03-15T04:34:10.28 ,"1/0090477246.45350",    1,    4,   80204,"SS3","B3","B1","B3","B1","PISd",0,2,1,1,"B2", 0,15,   0, 0,    0,"TRK","NO  REC","OK ","OK ",    000599.456,    -009.077,    0031.681,    0018.929,    0105.237
"FRM_SS3_TRK_CMP_EDR_2791.DAT   ",2006-03-15T04:34:12.37 ,"1/0090477248.51254",    1,    5,   80204,"SS3","B3","B1","B3","B1","PISd",0,2,1,1,"B2", 0,15,   0, 0,    0,"TRK","NO  REC","OK ","OK ",    000597.415,    -009.195,    0031.679,    0018.930,    0105.262
"FRM_SS3_TRK_CMP_EDR_2791.DAT   ",2006-03-15T04:34:14.45 ,"1/0090477250.56644",    1,    6,   80204,"SS3","B3","B1","B3","B1","PISd",0,2,1,1,"B2", 0,15,   0, 0,    0,"TRK","NO  REC","OK ","OK ",    000595.388,    -009.313,    0031.678,    0018.930,    0105.286
"FRM_SS3_TRK_CMP_EDR_2791.DAT   ",2006-03-15T04:34:16.53 ,"1/0090477252.62033",    1,    7,   80204,"SS3","B3","B1","B3","B1","PISd",0,2,1,1,"B2", 0,15,   0, 0,    0,"TRK","NO  REC","OK ","OK ",    000593.366,    -009.430,    0031.677,    0018.931,    0105.310
"FRM_SS3_TRK_CMP_EDR_2791.DAT   ",2006-03-15T04:34:18.61 ,"1/0090477255.01372",    1,    8,   80204,"SS3","B3","B1","B3","B1","PISd",0,2,1,1,"B2", 0,15,   0, 0,    0,"TRK","NO  REC","OK ","OK ",    000591.357,    -009.548,    0031.675,    0018.931,    0105.334
"FRM_SS3_TRK_CMP_EDR_2791.DAT   ",2006-03-15T04:34:20.68 ,"1/0090477257.06247",    1,    9,   80204,"SS3","B3","B1","B3","B1","PISd",0,2,1,1,"B2", 0,15,   0, 0,    0,"TRK","NO  REC","OK ","OK ",    000589.354,    -009.665,    0031.674,    0018.931,    0105.359
"FRM_SS3_TRK_CMP_EDR_2791.DAT   ",2006-03-15T04:34:22.75 ,"1/0090477259.10606",    1,   10,   80204,"SS3","B3","B1","B3","B1","PISd",0,2,1,1,"B2", 0,15,   0, 0,    0,"TRK","NO  REC","OK ","OK ",    000587.363,    -009.782,    0031.673,    0018.932,    0105.382
"FRM_SS3_TRK_CMP_EDR_2791.DAT   ",2006-03-15T04:34:24.81 ,"1/0090477261.14966",    1,   11,   80204,"SS3","B3","B1","B3","B1","PISd",0,2,1,1,"B2", 0,15,   0, 0,    0,"TRK","NO  REC","OK ","OK ",    000585.378,    -009.899,    0031.672,    0018.933,    0105.406
"FRM_SS3_TRK_CMP_EDR_2791.DAT   ",2006-03-15T04:34:26.87 ,"1/0090477263.18811",    1,   12,   80204,"SS3","B3","B1","B3","B1","PISd",0,2,1,1,"B2", 0,15,   0, 0,    0,"TRK","NO  REC","OK ","OK ",    000583.405,    -010.016,    0031.670,    0018.933,    0105.430
"FRM_SS3_TRK_CMP_EDR_2791.DAT   ",2006-03-15T04:34:28.93 ,"1/0090477265.22656",    1,   13,   80204,"SS3","B3","B1","B3","B1","PISd",0,2,1,1,"B2", 0,15,   0, 0,    0,"TRK","NO  REC","OK ","OK ",    000581.438,    -010.133,    0031.669,    0018.933,    0105.454
"FRM_SS3_TRK_CMP_EDR_2791.DAT   ",2006-03-15T04:34:30.98 ,"1/0090477267.25985",    1,   14,   80204,"SS3","B3","B1","B3","B1","PISd",0,2,1,1,"B2", 0,15,   0, 0,    0,"TRK","NO  REC","OK ","OK ",    000579.484,    -010.250,    0031.668,    0018.934,    0105.477
"FRM_SS3_TRK_CMP_EDR_2791.DAT   ",2006-03-15T04:34:33.03 ,"1/0090477269.29315",    1,   15,   80204,"SS3","B3","B1","B3","B1","PISd",0,2,1,1,"B2", 0,15,   0, 0,    0,"TRK","NO  REC","OK ","OK ",    000577.535,    -010.367,    0031.667,    0018.934,    0105.501
"FRM_SS3_TRK_CMP_EDR_2791.DAT   ",2006-03-15T04:34:35.07 ,"1/0090477271.32130",    1,   16,   80204,"SS3","B3","B1","B3","B1","PISd",0,2,1,1,"B2", 0,15,   0, 0,    0,"TRK","NO  REC","OK ","OK ",    000575.599,    -010.483,    0031.666,    0018.935,    0105.524
"FRM_SS3_TRK_CMP_EDR_2791.DAT   ",2006-03-15T04:34:37.12 ,"1/0090477273.34945",    1,   17,   80204,"SS3","B3","B1","B3","B1","PISd",0,2,1,1,"B2", 0,15,   0, 0,    0,"TRK","NO  REC","OK ","OK ",    000573.668,    -010.600,    0031.664,    0018.935,    0105.548
"FRM_SS3_TRK_CMP_EDR_2791.DAT   ",2006-03-15T04:34:39.15 ,"1/0090477275.37245",    1,   18,   80204,"SS3","B3","B1","B3","B1","PISd",0,2,1,1,"B2", 0,15,   0, 0,    0,"TRK","NO  REC","OK ","OK ",    000571.750,    -010.716,    0031.663,    0018.936,    0105.571
"FRM_SS3_TRK_CMP_EDR_2791.DAT   ",2006-03-15T04:34:41.19 ,"1/0090477277.39545",    1,   19,   80204,"SS3","B3","B1","B3","B1","PISd",0,2,1,1,"B2", 0,15,   0, 0,    0,"TRK","NO  REC","OK ","OK ",    000569.837,    -010.833,    0031.662,    0018.936,    0105.594
"FRM_SS3_TRK_CMP_EDR_2791.DAT   ",2006-03-15T04:34:43.22 ,"1/0090477279.41330",    1,   20,   80204,"SS3","B3","B1","B3","B1","PISd",0,2,1,1,"B2", 0,15,   0, 0,    0,"TRK","NO  REC","OK ","OK ",    000567.937,    -010.949,    0031.661,    0018.937,    0105.617
"FRM_SS3_TRK_CMP_EDR_2791.DAT   ",2006-03-15T04:34:45.24 ,"1/0090477281.43114",    1,   21,   80204,"SS3","B3","B1","B3","B1","PISd",0,2,1,1,"B2", 0,15,   0, 0,    0,"TRK","NO  REC","OK ","OK ",    000566.042,    -011.065,    0031.660,    0018.937,    0105.640
"FRM_SS3_TRK_CMP_EDR_2791.DAT   ",2006-03-15T04:34:47.26 ,"1/0090477283.44384",    1,   22,   80204,"SS3","B3","B1","B3","B1","PISd",0,2,1,1,"B2", 0,15,   0, 0,    0,"TRK","NO  REC","OK ","OK ",    000564.160,    -011.181,    0031.659,    0018.938,    0105.663
"FRM_SS3_TRK_CMP_EDR_2791.DAT   ",2006-03-15T04:34:49.28 ,"1/0090477285.45654",    1,   23,   80204,"SS3","B3","B1","B3","B1","PISd",0,2,1,1,"B2", 0,15,   0, 0,    0,"TRK","NO  REC","OK ","OK ",    000562.283,    -011.297,    0031.658,    0018.938,    0105.686
"FRM_SS3_TRK_CMP_EDR_2791.DAT   ",2006-03-15T04:34:51.29 ,"1/0090477287.46410",    1,   24,   80204,"SS3","B3","B1","B3","B1","PISd",0,2,1,1,"B2", 0,15,   0, 0,    0,"TRK","NO  REC","OK ","OK ",    000560.418,    -011.412,    0031.657,    0018.939,    0105.709
"FRM_SS3_TRK_CMP_EDR_2791.DAT   ",2006-03-15T04:34:53.30 ,"1/0090477289.47165",    1,   25,   80204,"SS3","B3","B1","B3","B1","PISd",0,2,1,1,"B2", 0,15,   0, 0,    0,"TRK","NO  REC","OK ","OK ",    000558.559,    -011.528,    0031.656,    0018.939,    0105.731
"FRM_SS3_TRK_CMP_EDR_2791.DAT   ",2006-03-15T04:34:55.31 ,"1/0090477291.47405",    1,   26,   80204,"SS3","B3","B1","B3","B1","PISd",0,2,1,1,"B2", 0,15,   0, 0,    0,"TRK","NO  REC","OK ","OK ",    000556.712,    -011.643,    0031.655,    0018.939,    0105.754
"FRM_SS3_TRK_CMP_EDR_2791.DAT   ",2006-03-15T04:34:57.31 ,"1/0090477293.47645",    1,   27,   80204,"SS3","B3","B1","B3","B1","PISd",0,2,1,1,"B2", 0,15,   0, 0,    0,"TRK","NO  REC","OK ","OK ",    000554.870,    -011.759,    0031.654,    0018.940,    0105.776
"FRM_SS3_TRK_CMP_EDR_2791.DAT   ",2006-03-15T04:34:59.31 ,"1/0090477295.47370",    1,   28,   80204,"SS3","B3","B1","B3","B1","PISd",0,2,1,1,"B2", 0,15,   0, 0,    0,"TRK","NO  REC","OK ","OK ",    000553.041,    -011.874,    0031.653,    0018.941,    0105.799
"FRM_SS3_TRK_CMP_EDR_2791.DAT   ",2006-03-15T04:35:01.30 ,"1/0090477297.47095",    1,   29,   80204,"SS3","B3","B1","B3","B1","PISd",0,2,1,1,"B2", 0,15,   0, 0,    0,"TRK","NO  REC","OK ","OK ",    000551.217,    -011.989,    0031.652,    0018.941,    0105.821
"FRM_SS3_TRK_CMP_EDR_2791.DAT   ",2006-03-15T04:35:03.29 ,"1/0090477299.46305",    1,   30,   80204,"SS3","B3","B1","B3","B1","PISd",0,2,1,1,"B2", 0,15,   0, 0,    0,"TRK","NO  REC","OK ","OK ",    000549.406,    -012.104,    0031.651,    0018.941,    0105.843
"FRM_SS3_TRK_CMP_EDR_2791.DAT   ",2006-03-15T04:35:05.28 ,"1/0090477301.45515",    1,   31,   80204,"SS3","B3","B1","B3","B1","PISd",0,2,1,1,"B2", 0,15,   0, 0,    0,"TRK","NO  REC","OK ","OK ",    000547.599,    -012.219,    0031.650,    0018.942,    0105.865
"FRM_SS3_TRK_CMP_EDR_2791.DAT   ",2006-03-15T04:35:07.27 ,"1/0090477303.44726",    1,   32,   80204,"SS3","B3","B1","B3","B1","PISd",0,2,1,1,"B2", 0,15,   0, 0,    0,"TRK","NO  REC","OK ","OK ",    000545.798,    -012.334,    0031.649,    0018.942,    0105.887
"FRM_SS3_TRK_CMP_EDR_2791.DAT   ",2006-03-15T04:35:09.25 ,"1/0090477305.43421",    1,   33,   80204,"SS3","B3","B1","B3","B1","PISd",0,2,1,1,"B2", 0,15,   0, 0,    0,"TRK","NO  REC","OK ","OK ",    000544.010,    -012.449,    0031.648,    0018.943,    0105.909
"FRM_SS3_TRK_CMP_EDR_2791.DAT   ",2006-03-15T04:35:11.23 ,"1/0090477307.42116",    1,   34,   80204,"SS3","B3","B1","B3","B1","PISd",0,2,1,1,"B2", 0,15,   0, 0,    0,"TRK","NO  REC","OK ","OK ",    000542.226,    -012.564,    0031.647,    0018.943,    0105.931
"FRM_SS3_TRK_CMP_EDR_2791.DAT   ",2006-03-15T04:35:13.20 ,"1/0090477309.40296",    1,   35,   80204,"SS3","B3","B1","B3","B1","PISd",0,2,1,1,"B2", 0,15,   0, 0,    0,"TRK","NO  REC","OK ","OK ",    000540.455,    -012.678,    0031.646,    0018.944,    0105.953
"FRM_SS3_TRK_CMP_EDR_2791.DAT   ",2006-03-15T04:35:15.17 ,"1/0090477311.38477",    1,   36,   80204,"SS3","B3","B1","B3","B1","PISd",0,2,1,1,"B2", 0,15,   0, 0,    0,"TRK","NO  REC","OK ","OK ",    000538.688,    -012.793,    0031.645,    0018.944,    0105.975
"FRM_SS3_TRK_CMP_EDR_2791.DAT   ",2006-03-15T04:35:17.14 ,"1/0090477313.36142",    1,   37,   80204,"SS3","B3","B1","B3","B1","PISd",0,2,1,1,"B2", 0,15,   0, 0,    0,"TRK","NO  REC","OK ","OK ",    000536.934,    -012.907,    0031.644,    0018.945,    0105.996
"FRM_SS3_TRK_CMP_EDR_2791.DAT   ",2006-03-15T04:35:19.10 ,"1/0090477315.33807",    1,   38,   80204,"SS3","B3","B1","B3","B1","PISd",0,2,1,1,"B2", 0,15,   0, 0,    0,"TRK","NO  REC","OK ","OK ",    000535.185,    -013.021,    0031.643,    0018.945,    0106.018
"FRM_SS3_TRK_CMP_EDR_2791.DAT   ",2006-03-15T04:35:21.06 ,"1/0090477317.30958",    1,   39,   80204,"SS3","B3","B1","B3","B1","PISd",0,2,1,1,"B2", 0,15,   0, 0,    0,"TRK","NO  REC","OK ","OK ",    000533.449,    -013.135,    0031.642,    0018.946,    0106.039